Time,TemperatureF,DewpointF,PressureIn,WindDirection,WindDirectionDegrees,WindSpeedMPH,WindSpeedGustMPH,Humidity,HourlyPrecipIn,Conditions,Clouds,dailyrainin,SolarRadiationWatts/m^2,SoftwareType,DateUTC
2013-05-10 00:02:00,51.1,47.3,30.31,West,259,5.0,11.0,87,0.00,,,0.00,0.0,meteohub,2013-05-10 07:02:00,
2013-05-10 00:07:00,50.9,47.1,30.30,West,265,5.0,11.0,87,0.00,,,0.00,0.0,meteohub,2013-05-10 07:07:00,
2013-05-10 00:12:00,50.7,46.9,30.31,WSW,247,5.0,11.0,87,0.00,,,0.00,0.0,meteohub,2013-05-10 07:12:00,
2013-05-10 00:17:00,50.7,46.9,30.31,WSW,249,4.0,11.0,87,0.00,,,0.00,0.0,meteohub,2013-05-10 07:17:00,
2013-05-10 00:22:00,50.7,46.9,30.31,West,267,0.0,9.0,87,0.00,,,0.00,0.0,meteohub,2013-05-10 07:22:00,
2013-05-10 00:27:00,50.7,47.3,30.31,West,273,3.0,7.0,88,0.00,,,0.00,0.0,meteohub,2013-05-10 07:27:00,
2013-05-10 00:32:00,50.7,47.3,30.31,SSW,207,3.0,6.0,88,0.00,,,0.00,0.0,meteohub,2013-05-10 07:32:00,
2013-05-10 00:37:00,50.7,47.3,30.31,West,260,5.0,7.0,88,0.00,,,0.00,0.0,meteohub,2013-05-10 07:37:00,
2013-05-10 00:42:00,50.7,47.3,30.31,WSW,251,6.0,7.0,88,0.00,,,0.00,0.0,meteohub,2013-05-10 07:42:00,
2013-05-10 00:47:00,50.9,47.5,30.31,WSW,240,2.0,8.0,88,0.00,,,0.00,0.0,meteohub,2013-05-10 07:47:00,
2013-05-10 00:52:00,51.1,47.7,30.31,West,277,4.0,9.0,88,0.00,,,0.00,0.0,meteohub,2013-05-10 07:52:00,
2013-05-10 00:57:00,51.1,47.7,30.31,West,272,4.0,11.0,88,0.00,,,0.00,0.0,meteohub,2013-05-10 07:57:00,
2013-05-10 01:02:00,51.1,47.7,30.32,SW,219,6.0,11.0,88,0.00,,,0.00,0.0,meteohub,2013-05-10 08:02:00,
2013-05-10 01:07:00,50.9,47.5,30.32,SW,228,7.0,11.0,88,0.00,,,0.00,0.0,meteohub,2013-05-10 08:07:00,
2013-05-10 01:12:00,50.7,47.3,30.31,WSW,253,4.0,11.0,88,0.00,,,0.00,0.0,meteohub,2013-05-10 08:12:00,
2013-05-10 01:17:00,50.7,47.3,30.31,WSW,252,4.0,12.0,88,0.00,,,0.00,0.0,meteohub,2013-05-10 08:17:00,
2013-05-10 01:22:00,50.5,47.1,30.31,West,278,5.0,14.0,88,0.00,,,0.00,0.0,meteohub,2013-05-10 08:22:00,
2013-05-10 01:27:00,50.5,47.1,30.31,SW,225,3.0,14.0,88,0.00,,,0.00,0.0,meteohub,2013-05-10 08:27:00,
2013-05-10 01:32:00,50.5,47.1,30.31,SW,236,6.0,10.0,88,0.00,,,0.00,0.0,meteohub,2013-05-10 08:32:00,
2013-05-10 01:37:00,50.5,47.1,30.31,SW,219,5.0,9.0,88,0.00,,,0.00,0.0,meteohub,2013-05-10 08:37:00,
2013-05-10 01:42:00,50.5,47.5,30.31,West,263,4.0,10.0,89,0.00,,,0.00,0.0,meteohub,2013-05-10 08:42:00,
2013-05-10 01:47:00,50.5,47.5,30.31,WSW,248,2.0,10.0,89,0.00,,,0.00,0.0,meteohub,2013-05-10 08:47:00,
2013-05-10 01:52:00,50.5,47.5,30.30,WSW,238,4.0,9.0,89,0.00,,,0.00,0.0,meteohub,2013-05-10 08:52:00,
2013-05-10 01:57:00,50.5,47.5,30.30,WSW,238,2.0,9.0,89,0.00,,,0.00,0.0,meteohub,2013-05-10 08:57:00,
2013-05-10 02:02:00,50.4,47.3,30.30,WNW,285,0.0,8.0,89,0.00,,,0.00,0.0,meteohub,2013-05-10 09:02:00,
2013-05-10 02:07:00,50.4,47.3,30.30,WSW,252,2.0,8.0,89,0.00,,,0.00,0.0,meteohub,2013-05-10 09:07:00,
2013-05-10 02:12:00,50.4,47.3,30.30,SW,218,2.0,8.0,89,0.00,,,0.00,0.0,meteohub,2013-05-10 09:12:00,
2013-05-10 02:17:00,50.2,47.1,30.30,West,277,4.0,8.0,89,0.00,,,0.00,0.0,meteohub,2013-05-10 09:17:00,
2013-05-10 02:22:00,50.2,47.3,30.30,WSW,237,4.0,9.0,90,0.00,,,0.00,0.0,meteohub,2013-05-10 09:22:00,
2013-05-10 02:27:00,50.4,47.5,30.30,West,281,4.0,9.0,90,0.00,,,0.00,0.0,meteohub,2013-05-10 09:27:00,
2013-05-10 02:32:00,50.4,47.5,30.30,WSW,251,6.0,9.0,90,0.00,,,0.00,0.0,meteohub,2013-05-10 09:32:00,
2013-05-10 02:37:00,50.4,47.5,30.30,SW,224,5.0,9.0,90,0.00,,,0.00,0.0,meteohub,2013-05-10 09:37:00,
2013-05-10 02:42:00,50.4,47.5,30.29,SSW,209,2.0,10.0,90,0.00,,,0.00,0.0,meteohub,2013-05-10 09:42:00,
2013-05-10 02:47:00,50.4,47.5,30.29,WSW,255,3.0,10.0,90,0.00,,,0.00,0.0,meteohub,2013-05-10 09:47:00,
2013-05-10 02:52:00,50.4,47.5,30.29,WSW,257,4.0,11.0,90,0.00,,,0.00,0.0,meteohub,2013-05-10 09:52:00,
2013-05-10 02:57:00,50.4,47.5,30.29,West,261,1.0,11.0,90,0.00,,,0.00,0.0,meteohub,2013-05-10 09:57:00,
2013-05-10 03:02:00,50.4,47.5,30.29,SW,225,4.0,11.0,90,0.00,,,0.00,0.0,meteohub,2013-05-10 10:02:00,
2013-05-10 03:07:00,50.4,47.5,30.29,WSW,254,5.0,10.0,90,0.00,,,0.00,0.0,meteohub,2013-05-10 10:07:00,
2013-05-10 03:12:00,50.4,47.5,30.29,WSW,240,6.0,10.0,90,0.00,,,0.00,0.0,meteohub,2013-05-10 10:12:00,
2013-05-10 03:17:00,50.4,47.5,30.28,West,269,5.0,10.0,90,0.00,,,0.00,0.0,meteohub,2013-05-10 10:17:00,
2013-05-10 03:22:00,50.4,47.5,30.29,SW,235,3.0,11.0,90,0.00,,,0.00,0.0,meteohub,2013-05-10 10:22:00,
2013-05-10 03:27:00,50.4,47.5,30.28,WSW,243,2.0,11.0,90,0.00,,,0.00,0.0,meteohub,2013-05-10 10:27:00,
2013-05-10 03:32:00,50.4,47.5,30.28,SSW,205,3.0,7.0,90,0.00,,,0.00,0.0,meteohub,2013-05-10 10:32:00,
2013-05-10 03:37:00,50.4,47.5,30.28,SSW,207,4.0,10.0,90,0.00,,,0.00,0.0,meteohub,2013-05-10 10:37:00,
2013-05-10 03:42:00,50.4,47.5,30.28,West,261,4.0,10.0,90,0.00,,,0.00,0.0,meteohub,2013-05-10 10:42:00,
2013-05-10 03:47:00,50.4,47.5,30.28,West,260,2.0,10.0,90,0.00,,,0.00,0.0,meteohub,2013-05-10 10:47:00,
2013-05-10 03:52:00,50.4,47.5,30.28,WSW,257,2.0,9.0,90,0.00,,,0.00,0.0,meteohub,2013-05-10 10:52:00,
2013-05-10 03:57:00,50.4,47.5,30.28,West,262,1.0,9.0,90,0.00,,,0.00,0.0,meteohub,2013-05-10 10:57:00,
2013-05-10 04:02:00,50.4,47.5,30.27,WNW,282,3.0,9.0,90,0.00,,,0.00,0.0,meteohub,2013-05-10 11:02:00,
2013-05-10 04:07:00,50.2,47.3,30.27,West,267,2.0,8.0,90,0.00,,,0.00,0.0,meteohub,2013-05-10 11:07:00,
2013-05-10 04:12:00,50.2,47.3,30.27,WSW,255,2.0,8.0,90,0.00,,,0.00,0.0,meteohub,2013-05-10 11:12:00,
2013-05-10 04:17:00,50.2,47.7,30.27,WSW,238,4.0,9.0,91,0.00,,,0.00,0.0,meteohub,2013-05-10 11:17:00,
2013-05-10 04:22:00,50.2,47.7,30.27,WNW,298,4.0,9.0,91,0.00,,,0.00,0.0,meteohub,2013-05-10 11:22:00,
2013-05-10 04:27:00,50.0,47.5,30.27,WSW,253,4.0,9.0,91,0.00,,,0.00,0.0,meteohub,2013-05-10 11:27:00,
2013-05-10 04:32:00,50.0,47.5,30.27,West,270,5.0,9.0,91,0.00,,,0.00,0.0,meteohub,2013-05-10 11:32:00,
2013-05-10 04:37:00,50.0,47.5,30.27,West,275,2.0,8.0,91,0.00,,,0.00,0.0,meteohub,2013-05-10 11:37:00,
2013-05-10 04:42:00,49.8,47.3,30.27,SW,220,2.0,7.0,91,0.00,,,0.00,0.0,meteohub,2013-05-10 11:42:00,
2013-05-10 04:47:00,49.8,47.3,30.27,West,269,5.0,7.0,91,0.00,,,0.00,0.0,meteohub,2013-05-10 11:47:00,
2013-05-10 04:52:00,49.8,47.3,30.27,West,265,3.0,8.0,91,0.00,,,0.00,0.0,meteohub,2013-05-10 11:52:00,
2013-05-10 04:57:00,49.8,47.3,30.27,WSW,252,2.0,9.0,91,0.00,,,0.00,0.0,meteohub,2013-05-10 11:57:00,
2013-05-10 05:02:00,49.8,47.3,30.26,South,188,5.0,9.0,91,0.00,,,0.00,0.0,meteohub,2013-05-10 12:02:00,
2013-05-10 05:07:00,49.8,47.3,30.27,WSW,252,2.0,9.0,91,0.00,,,0.00,0.0,meteohub,2013-05-10 12:07:00,
2013-05-10 05:12:00,49.8,47.7,30.27,SSW,211,3.0,9.0,92,0.00,,,0.00,0.0,meteohub,2013-05-10 12:12:00,
2013-05-10 05:17:00,49.8,47.7,30.27,West,270,4.0,9.0,92,0.00,,,0.00,0.0,meteohub,2013-05-10 12:17:00,
2013-05-10 05:22:00,49.8,47.7,30.27,WSW,245,3.0,9.0,92,0.00,,,0.00,0.0,meteohub,2013-05-10 12:22:00,
2013-05-10 05:27:00,49.8,47.7,30.27,SW,232,2.0,7.0,92,0.00,,,0.00,0.0,meteohub,2013-05-10 12:27:00,
2013-05-10 05:37:00,49.8,47.7,30.27,WSW,254,1.0,7.0,92,0.00,,,0.00,0.0,meteohub,2013-05-10 12:37:00,
2013-05-10 05:42:00,49.8,47.7,30.28,West,281,3.0,7.0,92,0.00,,,0.00,0.0,meteohub,2013-05-10 12:42:00,
2013-05-10 05:47:00,49.8,47.7,30.27,SW,227,1.0,7.0,92,0.00,,,0.00,0.0,meteohub,2013-05-10 12:47:00,
2013-05-10 05:52:00,49.8,47.7,30.27,WSW,257,2.0,7.0,92,0.00,,,0.00,0.0,meteohub,2013-05-10 12:52:00,
2013-05-10 05:57:00,49.8,47.7,30.27,NW,307,0.0,6.0,92,0.00,,,0.00,0.0,meteohub,2013-05-10 12:57:00,
2013-05-10 06:07:00,49.8,47.7,30.27,WSW,248,2.0,7.0,92,0.00,,,0.00,0.0,meteohub,2013-05-10 13:07:00,
2013-05-10 06:12:00,49.6,47.5,30.28,West,277,0.0,7.0,92,0.00,,,0.00,5.0,meteohub,2013-05-10 13:12:00,
2013-05-10 06:22:00,49.8,47.7,30.28,West,277,1.0,6.0,92,0.00,,,0.00,11.0,meteohub,2013-05-10 13:22:00,
2013-05-10 06:27:00,49.8,47.7,30.28,SW,230,1.0,6.0,92,0.00,,,0.00,16.0,meteohub,2013-05-10 13:27:00,
2013-05-10 06:32:00,49.8,47.7,30.28,WSW,256,2.0,6.0,92,0.00,,,0.00,19.0,meteohub,2013-05-10 13:32:00,
2013-05-10 06:37:00,50.0,47.8,30.28,SW,234,1.0,6.0,92,0.00,,,0.00,16.0,meteohub,2013-05-10 13:37:00,
2013-05-10 06:42:00,50.2,48.0,30.28,WSW,240,3.0,6.0,92,0.00,,,0.00,19.0,meteohub,2013-05-10 13:42:00,
2013-05-10 06:47:00,50.2,48.0,30.29,WSW,246,3.0,6.0,92,0.00,,,0.00,21.0,meteohub,2013-05-10 13:47:00,
2013-05-10 06:52:00,50.4,48.2,30.29,SW,233,3.0,8.0,92,0.00,,,0.00,35.0,meteohub,2013-05-10 13:52:00,
2013-05-10 06:57:00,50.4,48.2,30.29,WSW,247,3.0,8.0,92,0.00,,,0.00,58.0,meteohub,2013-05-10 13:57:00,
2013-05-10 07:02:00,50.5,48.6,30.29,West,271,5.0,8.0,93,0.00,,,0.00,67.0,meteohub,2013-05-10 14:02:00,
2013-05-10 07:07:00,50.5,48.6,30.29,WSW,240,4.0,8.0,93,0.00,,,0.00,53.0,meteohub,2013-05-10 14:07:00,
2013-05-10 07:12:00,50.5,48.6,30.29,WSW,252,4.0,7.0,93,0.00,,,0.00,49.0,meteohub,2013-05-10 14:12:00,
2013-05-10 07:17:00,50.7,48.7,30.29,WSW,239,4.0,7.0,93,0.00,,,0.00,74.0,meteohub,2013-05-10 14:17:00,
2013-05-10 07:22:00,50.9,48.9,30.30,WSW,249,6.0,7.0,93,0.00,,,0.00,79.0,meteohub,2013-05-10 14:22:00,
2013-05-10 07:27:00,51.1,48.9,30.30,West,261,4.0,8.0,92,0.00,,,0.00,86.0,meteohub,2013-05-10 14:27:00,
2013-05-10 07:32:00,51.1,48.9,30.30,SSW,212,5.0,8.0,92,0.00,,,0.00,105.0,meteohub,2013-05-10 14:32:00,
2013-05-10 07:37:00,51.1,48.9,30.30,SW,226,4.0,9.0,92,0.00,,,0.00,70.0,meteohub,2013-05-10 14:37:00,
2013-05-10 07:42:00,51.3,49.1,30.30,SSE,154,3.0,9.0,92,0.00,,,0.00,98.0,meteohub,2013-05-10 14:42:00,
2013-05-10 07:47:00,51.4,49.3,30.30,SW,236,2.0,9.0,92,0.00,,,0.00,56.0,meteohub,2013-05-10 14:47:00,
2013-05-10 07:52:00,51.4,49.3,30.30,WSW,237,2.0,8.0,92,0.00,,,0.00,58.0,meteohub,2013-05-10 14:52:00,
2013-05-10 07:57:00,51.6,49.5,30.30,West,265,6.0,7.0,92,0.00,,,0.00,54.0,meteohub,2013-05-10 14:57:00,
2013-05-10 08:02:00,51.8,49.6,30.30,West,261,3.0,7.0,92,0.00,,,0.00,56.0,meteohub,2013-05-10 15:02:00,
2013-05-10 08:07:00,52.0,49.6,30.30,West,259,4.0,7.0,92,0.00,,,0.00,77.0,meteohub,2013-05-10 15:07:00,
2013-05-10 08:12:00,52.3,50.0,30.30,WSW,254,3.0,6.0,92,0.00,,,0.00,67.0,meteohub,2013-05-10 15:12:00,
2013-05-10 08:17:00,52.3,49.8,30.30,WSW,245,3.0,7.0,91,0.00,,,0.00,47.0,meteohub,2013-05-10 15:17:00,
2013-05-10 08:22:00,52.5,50.0,30.30,NW,313,2.0,7.0,91,0.00,,,0.00,39.0,meteohub,2013-05-10 15:22:00,
2013-05-10 08:27:00,52.7,50.2,30.30,WSW,246,3.0,7.0,91,0.00,,,0.00,37.0,meteohub,2013-05-10 15:27:00,
2013-05-10 08:32:00,52.7,49.8,30.30,SW,229,2.0,7.0,90,0.00,,,0.00,37.0,meteohub,2013-05-10 15:32:00,
2013-05-10 08:37:00,52.9,50.0,30.30,North,0,3.0,6.0,90,0.00,,,0.00,35.0,meteohub,2013-05-10 15:37:00,
2013-05-10 08:42:00,53.1,50.2,30.30,WSW,250,5.0,6.0,90,0.00,,,0.00,35.0,meteohub,2013-05-10 15:42:00,
2013-05-10 08:47:00,53.2,50.4,30.30,West,267,6.0,6.0,90,0.00,,,0.00,35.0,meteohub,2013-05-10 15:47:00,
2013-05-10 08:52:00,53.4,50.5,30.30,SW,229,0.0,6.0,90,0.00,,,0.00,37.0,meteohub,2013-05-10 15:52:00,
2013-05-10 08:57:00,53.6,50.4,30.30,SW,229,2.0,7.0,89,0.00,,,0.00,37.0,meteohub,2013-05-10 15:57:00,
2013-05-10 09:02:00,54.0,50.7,30.30,WSW,250,0.0,7.0,89,0.00,,,0.00,37.0,meteohub,2013-05-10 16:02:00,
2013-05-10 09:07:00,54.1,50.9,30.30,West,268,6.0,6.0,89,0.00,,,0.00,37.0,meteohub,2013-05-10 16:07:00,
2013-05-10 09:12:00,54.3,50.9,30.30,SW,221,2.0,8.0,88,0.00,,,0.00,39.0,meteohub,2013-05-10 16:12:00,
2013-05-10 09:17:00,54.3,50.9,30.30,SW,226,3.0,8.0,88,0.00,,,0.00,40.0,meteohub,2013-05-10 16:17:00,
2013-05-10 09:22:00,54.7,50.9,30.30,West,260,2.0,8.0,87,0.00,,,0.00,40.0,meteohub,2013-05-10 16:22:00,
2013-05-10 09:27:00,54.7,50.9,30.30,SW,230,6.0,8.0,87,0.00,,,0.00,40.0,meteohub,2013-05-10 16:27:00,
2013-05-10 09:32:00,54.9,51.1,30.30,WSW,244,3.0,8.0,87,0.00,,,0.00,42.0,meteohub,2013-05-10 16:32:00,
2013-05-10 09:37:00,55.0,50.9,30.30,WSW,255,3.0,8.0,86,0.00,,,0.00,44.0,meteohub,2013-05-10 16:37:00,
2013-05-10 09:42:00,55.2,51.1,30.30,SW,227,5.0,8.0,86,0.00,,,0.00,44.0,meteohub,2013-05-10 16:42:00,
2013-05-10 09:47:00,55.8,51.6,30.30,WSW,246,5.0,8.0,86,0.00,,,0.00,46.0,meteohub,2013-05-10 16:47:00,
2013-05-10 09:52:00,55.9,51.4,30.30,WSW,247,3.0,7.0,85,0.00,,,0.00,47.0,meteohub,2013-05-10 16:52:00,
2013-05-10 09:57:00,56.3,51.8,30.30,WSW,237,4.0,11.0,85,0.00,,,0.00,65.0,meteohub,2013-05-10 16:57:00,
2013-05-10 10:02:00,56.7,51.8,30.30,SW,227,3.0,11.0,84,0.00,,,0.00,53.0,meteohub,2013-05-10 17:02:00,
2013-05-10 10:07:00,57.0,52.2,30.30,SSW,211,4.0,9.0,84,0.00,,,0.00,144.0,meteohub,2013-05-10 17:07:00,
2013-05-10 10:12:00,57.6,52.5,30.30,SW,220,8.0,9.0,83,0.00,,,0.00,54.0,meteohub,2013-05-10 17:12:00,
2013-05-10 10:17:00,57.9,52.5,30.30,WSW,256,3.0,9.0,82,0.00,,,0.00,56.0,meteohub,2013-05-10 17:17:00,
2013-05-10 10:22:00,58.1,52.3,30.31,WSW,254,2.0,9.0,81,0.00,,,0.00,62.0,meteohub,2013-05-10 17:22:00,
2013-05-10 10:27:00,58.3,52.5,30.31,SW,220,6.0,11.0,81,0.00,,,0.00,102.0,meteohub,2013-05-10 17:27:00,
2013-05-10 10:32:00,58.8,53.1,30.31,WSW,250,3.0,11.0,81,0.00,,,0.00,113.0,meteohub,2013-05-10 17:32:00,
2013-05-10 10:37:00,59.5,53.1,30.31,SW,234,7.0,11.0,79,0.00,,,0.00,84.0,meteohub,2013-05-10 17:37:00,
2013-05-10 10:42:00,60.1,53.2,30.31,West,263,5.0,11.0,78,0.00,,,0.00,726.0,meteohub,2013-05-10 17:42:00,
2013-05-10 10:47:00,60.6,53.4,30.31,West,263,4.0,10.0,77,0.00,,,0.00,735.0,meteohub,2013-05-10 17:47:00,
2013-05-10 10:52:00,60.8,53.6,30.31,West,273,2.0,11.0,77,0.00,,,0.00,744.0,meteohub,2013-05-10 17:52:00,
2013-05-10 10:57:00,61.3,53.8,30.31,West,269,5.0,12.0,76,0.00,,,0.00,754.0,meteohub,2013-05-10 17:57:00,
2013-05-10 11:02:00,62.1,53.6,30.32,SW,235,6.0,12.0,74,0.00,,,0.00,726.0,meteohub,2013-05-10 18:02:00,
2013-05-10 11:07:00,62.4,54.0,30.31,SW,227,6.0,9.0,74,0.00,,,0.00,257.0,meteohub,2013-05-10 18:07:00,
2013-05-10 11:12:00,62.8,53.6,30.32,West,259,5.0,9.0,72,0.00,,,0.00,74.0,meteohub,2013-05-10 18:12:00,
2013-05-10 11:17:00,63.0,54.1,30.31,WSW,257,4.0,11.0,73,0.00,,,0.00,72.0,meteohub,2013-05-10 18:17:00,
2013-05-10 11:22:00,63.3,53.8,30.31,West,262,4.0,11.0,71,0.00,,,0.00,74.0,meteohub,2013-05-10 18:22:00,
2013-05-10 11:27:00,63.1,54.0,30.31,WNW,286,2.0,11.0,72,0.00,,,0.00,74.0,meteohub,2013-05-10 18:27:00,
2013-05-10 11:32:00,63.5,54.0,30.31,West,277,5.0,11.0,71,0.00,,,0.00,74.0,meteohub,2013-05-10 18:32:00,
2013-05-10 11:37:00,63.7,53.8,30.31,SW,214,6.0,10.0,70,0.00,,,0.00,74.0,meteohub,2013-05-10 18:37:00,
2013-05-10 11:42:00,63.5,54.3,30.31,West,271,3.0,11.0,72,0.00,,,0.00,74.0,meteohub,2013-05-10 18:42:00,
2013-05-10 11:47:00,64.4,54.9,30.30,WSW,250,9.0,11.0,71,0.00,,,0.00,76.0,meteohub,2013-05-10 18:47:00,
2013-05-10 11:52:00,65.1,54.7,30.30,West,263,4.0,10.0,69,0.00,,,0.00,76.0,meteohub,2013-05-10 18:52:00,
2013-05-10 11:57:00,66.0,55.2,30.30,WSW,252,5.0,9.0,68,0.00,,,0.00,77.0,meteohub,2013-05-10 18:57:00,
2013-05-10 12:02:00,66.0,54.3,30.30,WSW,248,4.0,10.0,66,0.00,,,0.00,77.0,meteohub,2013-05-10 19:02:00,
2013-05-10 12:07:00,66.7,55.4,30.30,West,271,4.0,10.0,67,0.00,,,0.00,79.0,meteohub,2013-05-10 19:07:00,
2013-05-10 12:12:00,67.3,55.6,30.30,WSW,249,5.0,11.0,66,0.00,,,0.00,118.0,meteohub,2013-05-10 19:12:00,
2013-05-10 12:17:00,67.6,55.4,30.30,NW,315,6.0,11.0,65,0.00,,,0.00,258.0,meteohub,2013-05-10 19:17:00,
2013-05-10 12:22:00,68.2,55.0,30.30,WSW,250,7.0,11.0,63,0.00,,,0.00,891.0,meteohub,2013-05-10 19:22:00,
2013-05-10 12:27:00,68.2,55.0,30.30,SW,235,3.0,10.0,63,0.00,,,0.00,898.0,meteohub,2013-05-10 19:27:00,
2013-05-10 12:32:00,68.7,56.5,30.30,NW,307,3.0,10.0,65,0.00,,,0.00,902.0,meteohub,2013-05-10 19:32:00,
2013-05-10 12:37:00,70.2,56.1,30.30,NW,315,5.0,9.0,61,0.00,,,0.00,904.0,meteohub,2013-05-10 19:37:00,
2013-05-10 12:42:00,70.5,55.9,30.30,West,261,4.0,12.0,60,0.00,,,0.00,907.0,meteohub,2013-05-10 19:42:00,
2013-05-10 12:47:00,70.9,55.8,30.30,West,278,2.0,12.0,59,0.00,,,0.00,909.0,meteohub,2013-05-10 19:47:00,
2013-05-10 12:52:00,70.9,56.3,30.29,WNW,284,3.0,12.0,60,0.00,,,0.00,911.0,meteohub,2013-05-10 19:52:00,
2013-05-10 12:57:00,71.4,56.3,30.29,West,269,3.0,10.0,59,0.00,,,0.00,914.0,meteohub,2013-05-10 19:57:00,
2013-05-10 13:02:00,71.8,56.1,30.29,SW,230,6.0,10.0,58,0.00,,,0.00,912.0,meteohub,2013-05-10 20:02:00,
2013-05-10 13:07:00,72.0,57.4,30.29,West,269,4.0,10.0,60,0.00,,,0.00,916.0,meteohub,2013-05-10 20:07:00,
2013-05-10 13:12:00,73.0,56.8,30.28,WSW,253,4.0,10.0,57,0.00,,,0.00,918.0,meteohub,2013-05-10 20:12:00,
2013-05-10 13:17:00,73.0,56.8,30.28,SW,234,8.0,11.0,57,0.00,,,0.00,921.0,meteohub,2013-05-10 20:17:00,
2013-05-10 13:22:00,72.9,57.2,30.28,WSW,250,5.0,11.0,58,0.00,,,0.00,921.0,meteohub,2013-05-10 20:22:00,
2013-05-10 13:27:00,74.5,57.7,30.28,West,267,6.0,11.0,56,0.00,,,0.00,923.0,meteohub,2013-05-10 20:27:00,
2013-05-10 13:32:00,74.7,56.8,30.28,SW,234,3.0,11.0,54,0.00,,,0.00,918.0,meteohub,2013-05-10 20:32:00,
2013-05-10 13:37:00,74.1,56.5,30.28,WSW,242,8.0,10.0,54,0.00,,,0.00,919.0,meteohub,2013-05-10 20:37:00,
2013-05-10 13:42:00,73.9,56.8,30.27,SW,236,6.0,11.0,55,0.00,,,0.00,918.0,meteohub,2013-05-10 20:42:00,
2013-05-10 13:47:00,73.6,56.8,30.27,West,267,7.0,11.0,56,0.00,,,0.00,940.0,meteohub,2013-05-10 20:47:00,
2013-05-10 13:52:00,73.8,56.7,30.28,WSW,240,9.0,14.0,55,0.00,,,0.00,963.0,meteohub,2013-05-10 20:52:00,
2013-05-10 13:57:00,73.8,56.7,30.28,WSW,246,5.0,14.0,55,0.00,,,0.00,921.0,meteohub,2013-05-10 20:57:00,
2013-05-10 14:02:00,74.1,56.5,30.28,WSW,252,7.0,14.0,54,0.00,,,0.00,909.0,meteohub,2013-05-10 21:02:00,
2013-05-10 14:07:00,74.1,56.5,30.28,West,270,4.0,13.0,54,0.00,,,0.00,904.0,meteohub,2013-05-10 21:07:00,
2013-05-10 14:12:00,74.5,56.7,30.28,WNW,296,6.0,12.0,54,0.00,,,0.00,900.0,meteohub,2013-05-10 21:12:00,
2013-05-10 14:17:00,74.8,56.5,30.28,SW,219,4.0,12.0,53,0.00,,,0.00,895.0,meteohub,2013-05-10 21:17:00,
2013-05-10 14:22:00,74.7,56.8,30.28,West,269,4.0,12.0,54,0.00,,,0.00,886.0,meteohub,2013-05-10 21:22:00,
2013-05-10 14:27:00,75.4,56.5,30.28,West,259,4.0,12.0,52,0.00,,,0.00,879.0,meteohub,2013-05-10 21:27:00,
2013-05-10 14:32:00,75.7,56.3,30.28,WSW,252,10.0,11.0,51,0.00,,,0.00,872.0,meteohub,2013-05-10 21:32:00,
2013-05-10 14:37:00,75.7,56.8,30.27,SSW,211,5.0,11.0,52,0.00,,,0.00,870.0,meteohub,2013-05-10 21:37:00,
2013-05-10 14:42:00,75.9,56.5,30.27,WSW,250,8.0,11.0,51,0.00,,,0.00,867.0,meteohub,2013-05-10 21:42:00,
2013-05-10 14:47:00,75.7,56.8,30.27,West,272,5.0,12.0,52,0.00,,,0.00,860.0,meteohub,2013-05-10 21:47:00,
2013-05-10 14:52:00,76.3,56.8,30.27,West,276,6.0,12.0,51,0.00,,,0.00,854.0,meteohub,2013-05-10 21:52:00,
2013-05-10 14:57:00,76.5,57.0,30.27,West,260,6.0,12.0,51,0.00,,,0.00,847.0,meteohub,2013-05-10 21:57:00,
2013-05-10 15:02:00,76.6,57.2,30.27,West,267,4.0,10.0,51,0.00,,,0.00,842.0,meteohub,2013-05-10 22:02:00,
2013-05-10 15:07:00,76.5,56.5,30.27,West,261,7.0,12.0,50,0.00,,,0.00,833.0,meteohub,2013-05-10 22:07:00,
2013-05-10 15:12:00,76.3,56.8,30.27,WNW,282,4.0,12.0,51,0.00,,,0.00,803.0,meteohub,2013-05-10 22:12:00,
2013-05-10 15:17:00,77.0,57.0,30.27,SSW,192,5.0,12.0,50,0.00,,,0.00,812.0,meteohub,2013-05-10 22:17:00,
2013-05-10 15:22:00,77.2,56.5,30.26,West,272,5.0,11.0,49,0.00,,,0.00,805.0,meteohub,2013-05-10 22:22:00,
2013-05-10 15:27:00,76.8,55.6,30.26,West,268,5.0,11.0,48,0.00,,,0.00,795.0,meteohub,2013-05-10 22:27:00,
2013-05-10 15:32:00,76.6,56.7,30.26,West,263,7.0,13.0,50,0.00,,,0.00,788.0,meteohub,2013-05-10 22:32:00,
2013-05-10 15:37:00,76.8,56.3,30.26,WSW,250,5.0,13.0,49,0.00,,,0.00,779.0,meteohub,2013-05-10 22:37:00,
2013-05-10 15:42:00,76.6,56.7,30.25,WNW,289,4.0,14.0,50,0.00,,,0.00,770.0,meteohub,2013-05-10 22:42:00,
2013-05-10 15:47:00,76.8,56.8,30.25,West,264,4.0,14.0,50,0.00,,,0.00,758.0,meteohub,2013-05-10 22:47:00,
2013-05-10 15:52:00,76.6,56.1,30.25,SW,226,11.0,14.0,49,0.00,,,0.00,749.0,meteohub,2013-05-10 22:52:00,
2013-05-10 15:57:00,76.3,56.3,30.25,NW,310,6.0,12.0,50,0.00,,,0.00,740.0,meteohub,2013-05-10 22:57:00,
2013-05-10 16:02:00,76.3,55.8,30.25,WSW,252,8.0,12.0,49,0.00,,,0.00,724.0,meteohub,2013-05-10 23:02:00,
2013-05-10 16:07:00,75.6,56.1,30.25,WNW,290,5.0,12.0,51,0.00,,,0.00,717.0,meteohub,2013-05-10 23:07:00,
2013-05-10 16:12:00,75.4,55.4,30.25,West,262,6.0,14.0,50,0.00,,,0.00,703.0,meteohub,2013-05-10 23:12:00,
2013-05-10 16:17:00,75.4,55.4,30.25,WNW,291,7.0,14.0,50,0.00,,,0.00,691.0,meteohub,2013-05-10 23:17:00,
2013-05-10 16:27:00,74.1,54.9,30.24,West,267,6.0,13.0,51,0.00,,,0.00,666.0,meteohub,2013-05-10 23:27:00,
2013-05-10 16:32:00,74.3,55.6,30.24,SW,225,5.0,14.0,52,0.00,,,0.00,654.0,meteohub,2013-05-10 23:32:00,
2013-05-10 16:37:00,74.1,55.4,30.23,SW,236,5.0,14.0,52,0.00,,,0.00,642.0,meteohub,2013-05-10 23:37:00,
2013-05-10 16:42:00,73.8,55.0,30.23,WSW,248,6.0,13.0,52,0.00,,,0.00,633.0,meteohub,2013-05-10 23:42:00,
2013-05-10 16:47:00,73.2,55.0,30.23,West,279,4.0,14.0,53,0.00,,,0.00,615.0,meteohub,2013-05-10 23:47:00,
2013-05-10 16:57:00,73.4,54.7,30.23,WNW,284,7.0,13.0,52,0.00,,,0.00,587.0,meteohub,2013-05-10 23:57:00,
2013-05-10 17:02:00,72.9,54.7,30.23,WSW,238,6.0,13.0,53,0.00,,,0.00,573.0,meteohub,2013-05-11 00:02:00,
2013-05-10 17:07:00,72.9,55.2,30.23,West,260,3.0,13.0,54,0.00,,,0.00,555.0,meteohub,2013-05-11 00:07:00,
2013-05-10 17:12:00,73.6,55.9,30.23,WNW,285,4.0,14.0,54,0.00,,,0.00,541.0,meteohub,2013-05-11 00:12:00,
2013-05-10 17:17:00,73.8,55.0,30.23,WSW,243,9.0,14.0,52,0.00,,,0.00,529.0,meteohub,2013-05-11 00:17:00,
2013-05-10 17:27:00,72.5,54.9,30.23,West,259,4.0,12.0,54,0.00,,,0.00,501.0,meteohub,2013-05-11 00:27:00,
2013-05-10 17:32:00,72.0,54.3,30.23,West,278,5.0,15.0,54,0.00,,,0.00,482.0,meteohub,2013-05-11 00:32:00,
2013-05-10 17:37:00,71.1,54.1,30.23,SW,231,7.0,15.0,55,0.00,,,0.00,464.0,meteohub,2013-05-11 00:37:00,
2013-05-10 17:42:00,70.9,54.3,30.23,WSW,247,6.0,15.0,56,0.00,,,0.00,448.0,meteohub,2013-05-11 00:42:00,
2013-05-10 17:47:00,70.7,53.8,30.23,West,259,7.0,11.0,55,0.00,,,0.00,438.0,meteohub,2013-05-11 00:47:00,
2013-05-10 17:52:00,70.5,53.6,30.23,WSW,238,7.0,12.0,55,0.00,,,0.00,408.0,meteohub,2013-05-11 00:52:00,
2013-05-10 17:57:00,70.2,53.8,30.23,WSW,258,7.0,12.0,56,0.00,,,0.00,403.0,meteohub,2013-05-11 00:57:00,
2013-05-10 18:02:00,70.2,54.1,30.23,West,265,3.0,12.0,57,0.00,,,0.00,385.0,meteohub,2013-05-11 01:02:00,
2013-05-10 18:07:00,70.2,53.8,30.23,West,268,3.0,11.0,56,0.00,,,0.00,366.0,meteohub,2013-05-11 01:07:00,
2013-05-10 18:12:00,70.3,54.0,30.23,WSW,250,7.0,12.0,56,0.00,,,0.00,353.0,meteohub,2013-05-11 01:12:00,
2013-05-10 18:17:00,70.0,53.1,30.23,WSW,253,7.0,12.0,55,0.00,,,0.00,332.0,meteohub,2013-05-11 01:17:00,
2013-05-10 18:22:00,69.3,53.4,30.23,West,273,6.0,11.0,57,0.00,,,0.00,318.0,meteohub,2013-05-11 01:22:00,
2013-05-10 18:27:00,68.7,53.4,30.23,West,276,5.0,11.0,58,0.00,,,0.00,302.0,meteohub,2013-05-11 01:27:00,
2013-05-10 18:32:00,67.8,53.4,30.23,West,280,3.0,11.0,60,0.00,,,0.00,285.0,meteohub,2013-05-11 01:32:00,
2013-05-10 18:37:00,67.5,53.1,30.23,WSW,252,4.0,11.0,60,0.00,,,0.00,269.0,meteohub,2013-05-11 01:37:00,
2013-05-10 18:42:00,67.5,53.1,30.23,SW,230,7.0,11.0,60,0.00,,,0.00,248.0,meteohub,2013-05-11 01:42:00,
2013-05-10 18:47:00,67.1,53.2,30.23,WSW,253,6.0,11.0,61,0.00,,,0.00,225.0,meteohub,2013-05-11 01:47:00,
2013-05-10 18:52:00,66.7,52.9,30.23,West,275,6.0,11.0,61,0.00,,,0.00,202.0,meteohub,2013-05-11 01:52:00,
2013-05-10 18:57:00,66.2,52.9,30.24,WSW,242,6.0,12.0,62,0.00,,,0.00,188.0,meteohub,2013-05-11 01:57:00,
2013-05-10 19:02:00,65.8,52.5,30.24,SW,224,6.0,12.0,62,0.00,,,0.00,169.0,meteohub,2013-05-11 02:02:00,
2013-05-10 19:07:00,65.3,52.3,30.24,SW,231,6.0,12.0,63,0.00,,,0.00,146.0,meteohub,2013-05-11 02:07:00,
2013-05-10 19:12:00,64.8,52.3,30.23,West,259,4.0,11.0,64,0.00,,,0.00,128.0,meteohub,2013-05-11 02:12:00,
2013-05-10 19:17:00,64.2,52.2,30.23,WSW,252,1.0,11.0,65,0.00,,,0.00,109.0,meteohub,2013-05-11 02:17:00,
2013-05-10 19:22:00,63.9,51.8,30.24,WSW,250,2.0,10.0,65,0.00,,,0.00,93.0,meteohub,2013-05-11 02:22:00,
2013-05-10 19:27:00,63.1,51.6,30.24,WNW,286,3.0,10.0,66,0.00,,,0.00,76.0,meteohub,2013-05-11 02:27:00,
2013-05-10 19:32:00,62.6,51.4,30.24,WSW,246,1.0,11.0,67,0.00,,,0.00,63.0,meteohub,2013-05-11 02:32:00,
2013-05-10 19:37:00,62.1,51.4,30.24,West,278,5.0,11.0,68,0.00,,,0.00,47.0,meteohub,2013-05-11 02:37:00,
2013-05-10 19:42:00,61.3,51.4,30.25,WSW,244,5.0,11.0,70,0.00,,,0.00,25.0,meteohub,2013-05-11 02:42:00,
2013-05-10 19:47:00,60.4,51.1,30.25,SW,228,3.0,9.0,71,0.00,,,0.00,12.0,meteohub,2013-05-11 02:47:00,
2013-05-10 19:52:00,60.1,51.1,30.25,West,265,2.0,9.0,72,0.00,,,0.00,9.0,meteohub,2013-05-11 02:52:00,
2013-05-10 19:57:00,59.4,50.7,30.25,SW,225,1.0,9.0,73,0.00,,,0.00,7.0,meteohub,2013-05-11 02:57:00,
2013-05-10 20:02:00,58.6,50.4,30.25,SW,217,3.0,8.0,74,0.00,,,0.00,0.0,meteohub,2013-05-11 03:02:00,
2013-05-10 20:07:00,57.9,50.4,30.25,South,186,4.0,8.0,76,0.00,,,0.00,0.0,meteohub,2013-05-11 03:07:00,
2013-05-10 20:12:00,57.6,50.4,30.25,SW,220,5.0,9.0,77,0.00,,,0.00,0.0,meteohub,2013-05-11 03:12:00,
2013-05-10 20:17:00,57.2,50.0,30.25,WSW,250,1.0,9.0,77,0.00,,,0.00,0.0,meteohub,2013-05-11 03:17:00,
2013-05-10 20:22:00,56.8,50.4,30.26,NW,315,4.0,7.0,79,0.00,,,0.00,0.0,meteohub,2013-05-11 03:22:00,
2013-05-10 20:27:00,56.7,50.2,30.26,West,263,1.0,8.0,79,0.00,,,0.00,0.0,meteohub,2013-05-11 03:27:00,
2013-05-10 20:32:00,56.3,50.2,30.26,WSW,238,3.0,8.0,80,0.00,,,0.00,0.0,meteohub,2013-05-11 03:32:00,
2013-05-10 20:37:00,55.9,49.8,30.26,West,262,4.0,8.0,80,0.00,,,0.00,0.0,meteohub,2013-05-11 03:37:00,
2013-05-10 20:42:00,55.8,50.0,30.26,WNW,290,5.0,8.0,81,0.00,,,0.00,0.0,meteohub,2013-05-11 03:42:00,
2013-05-10 20:47:00,55.4,49.6,30.26,WNW,294,3.0,8.0,81,0.00,,,0.00,0.0,meteohub,2013-05-11 03:47:00,
2013-05-10 20:52:00,55.2,49.8,30.26,West,272,4.0,9.0,82,0.00,,,0.00,0.0,meteohub,2013-05-11 03:52:00,
2013-05-10 20:57:00,55.0,49.6,30.26,WSW,245,1.0,9.0,82,0.00,,,0.00,0.0,meteohub,2013-05-11 03:57:00,
2013-05-10 21:02:00,55.0,49.6,30.26,WSW,238,1.0,9.0,82,0.00,,,0.00,0.0,meteohub,2013-05-11 04:02:00,
2013-05-10 21:07:00,54.9,49.8,30.27,WSW,245,2.0,6.0,83,0.00,,,0.00,0.0,meteohub,2013-05-11 04:07:00,
2013-05-10 21:12:00,54.9,49.8,30.27,WSW,255,5.0,5.0,83,0.00,,,0.00,0.0,meteohub,2013-05-11 04:12:00,
2013-05-10 21:17:00,54.7,49.6,30.27,SW,234,3.0,6.0,83,0.00,,,0.00,0.0,meteohub,2013-05-11 04:17:00,
2013-05-10 21:22:00,54.5,49.8,30.27,WSW,255,6.0,6.0,84,0.00,,,0.00,0.0,meteohub,2013-05-11 04:22:00,
2013-05-10 21:27:00,54.3,49.6,30.27,WSW,239,5.0,7.0,84,0.00,,,0.00,0.0,meteohub,2013-05-11 04:27:00,
2013-05-10 21:32:00,54.1,49.5,30.27,West,260,3.0,8.0,84,0.00,,,0.00,0.0,meteohub,2013-05-11 04:32:00,
2013-05-10 21:37:00,54.0,49.6,30.27,WSW,242,4.0,8.0,85,0.00,,,0.00,0.0,meteohub,2013-05-11 04:37:00,
2013-05-10 21:42:00,54.0,49.6,30.27,WSW,242,1.0,8.0,85,0.00,,,0.00,0.0,meteohub,2013-05-11 04:42:00,
2013-05-10 21:47:00,53.8,49.5,30.27,West,263,4.0,8.0,85,0.00,,,0.00,0.0,meteohub,2013-05-11 04:47:00,
2013-05-10 21:52:00,53.6,49.5,30.27,WSW,246,2.0,6.0,86,0.00,,,0.00,0.0,meteohub,2013-05-11 04:52:00,
2013-05-10 21:57:00,53.6,49.5,30.27,WSW,257,6.0,6.0,86,0.00,,,0.00,0.0,meteohub,2013-05-11 04:57:00,
2013-05-10 22:02:00,53.4,49.3,30.27,SW,232,4.0,9.0,86,0.00,,,0.00,0.0,meteohub,2013-05-11 05:02:00,
2013-05-10 22:07:00,53.4,49.3,30.27,SW,229,3.0,9.0,86,0.00,,,0.00,0.0,meteohub,2013-05-11 05:07:00,
2013-05-10 22:12:00,53.2,49.1,30.27,WSW,248,2.0,9.0,86,0.00,,,0.00,0.0,meteohub,2013-05-11 05:12:00,
2013-05-10 22:17:00,53.2,49.1,30.27,WSW,246,2.0,7.0,86,0.00,,,0.00,0.0,meteohub,2013-05-11 05:17:00,
2013-05-10 22:22:00,53.1,49.3,30.27,WSW,237,2.0,7.0,87,0.00,,,0.00,0.0,meteohub,2013-05-11 05:22:00,
2013-05-10 22:27:00,53.1,49.3,30.27,WSW,240,3.0,7.0,87,0.00,,,0.00,0.0,meteohub,2013-05-11 05:27:00,
2013-05-10 22:32:00,53.1,49.3,30.27,SW,236,6.0,6.0,87,0.00,,,0.00,0.0,meteohub,2013-05-11 05:32:00,
2013-05-10 22:37:00,52.9,49.1,30.27,WSW,244,2.0,7.0,87,0.00,,,0.00,0.0,meteohub,2013-05-11 05:37:00,
2013-05-10 22:42:00,52.9,49.1,30.27,WSW,241,3.0,7.0,87,0.00,,,0.00,0.0,meteohub,2013-05-11 05:42:00,
2013-05-10 22:47:00,52.9,49.1,30.27,SW,224,0.0,7.0,87,0.00,,,0.00,0.0,meteohub,2013-05-11 05:47:00,
2013-05-10 22:52:00,52.7,48.9,30.27,SW,224,0.0,5.0,87,0.00,,,0.00,0.0,meteohub,2013-05-11 05:52:00,
2013-05-10 22:57:00,52.7,48.9,30.27,SSW,196,0.0,3.0,87,0.00,,,0.00,0.0,meteohub,2013-05-11 05:57:00,
2013-05-10 23:02:00,52.7,48.9,30.27,SW,225,0.0,3.0,87,0.00,,,0.00,0.0,meteohub,2013-05-11 06:02:00,
2013-05-10 23:07:00,52.7,49.3,30.27,SW,227,1.0,3.0,88,0.00,,,0.00,0.0,meteohub,2013-05-11 06:07:00,
2013-05-10 23:12:00,52.9,49.5,30.27,WSW,238,0.0,3.0,88,0.00,,,0.00,0.0,meteohub,2013-05-11 06:12:00,
2013-05-10 23:17:00,52.9,49.5,30.27,SW,234,1.0,3.0,88,0.00,,,0.00,0.0,meteohub,2013-05-11 06:17:00,
2013-05-10 23:22:00,52.9,49.5,30.27,WSW,252,0.0,3.0,88,0.00,,,0.00,0.0,meteohub,2013-05-11 06:22:00,
2013-05-10 23:27:00,52.9,49.5,30.27,West,269,0.0,3.0,88,0.00,,,0.00,0.0,meteohub,2013-05-11 06:27:00,
2013-05-10 23:32:00,52.9,49.1,30.27,SW,221,0.0,3.0,87,0.00,,,0.00,0.0,meteohub,2013-05-11 06:32:00,
2013-05-10 23:37:00,52.7,48.9,30.27,SW,225,0.0,7.0,87,0.00,,,0.00,0.0,meteohub,2013-05-11 06:37:00,
2013-05-10 23:42:00,52.7,48.9,30.27,WNW,287,1.0,7.0,87,0.00,,,0.00,0.0,meteohub,2013-05-11 06:42:00,
2013-05-10 23:47:00,52.7,49.3,30.27,SW,236,1.0,7.0,88,0.00,,,0.00,0.0,meteohub,2013-05-11 06:47:00,
2013-05-10 23:52:00,52.7,48.9,30.27,WSW,252,2.0,7.0,87,0.00,,,0.00,0.0,meteohub,2013-05-11 06:52:00,
2013-05-10 23:57:00,52.7,48.9,30.27,SSW,213,1.0,6.0,87,0.00,,,0.00,0.0,meteohub,2013-05-11 06:57:00,